When you browse on this site, cookies collect data to enhance your experience and personalize the content and advertising you see.
Visit our Privacy Policy to learn more. By continuing to use the site, you agree to this use of cookies and data.
  • In Spain
  • List of Countries
  • For 7 days
  • Water Temperature
  • Weather Map
  • Weather Widgets
  • user-avatar
    Login

    Hourly Weather Shushmino

    Today, 28 January, Tuesday

    Time Temperature Precipitation Wind Pressure Humidity
    00:00 -2°C° 0.6 mm 2 mps 739 mmHg 98%
    01:00 -2°C° 0.6 mm 3 mps 739 mmHg 98%
    02:00 -2°C° 0 mm 2 mps 739 mmHg 97%
    03:00 -4°C° 0.3 mm 3 mps 739 mmHg 97%
    04:00 -4°C° 0.3 mm 3 mps 738 mmHg 97%
    05:00 -4°C° 0.3 mm 3 mps 738 mmHg 97%
    06:00 -4°C° 0.2 mm 3 mps 738 mmHg 97%
    07:00 -4°C° 0.2 mm 3 mps 738 mmHg 97%
    08:00 -4°C° 0 mm 3 mps 738 mmHg 96%
    09:00 -4°C° 0.2 mm 3 mps 738 mmHg 96%
    10:00 -3°C° 0.2 mm 4 mps 738 mmHg 96%
    11:00 -3°C° 0.2 mm 4 mps 738 mmHg 96%
    12:00 -3°C° 0.1 mm 4 mps 738 mmHg 96%
    13:00 -3°C° 0.1 mm 4 mps 737 mmHg 96%
    14:00 -2°C° 0 mm 3 mps 737 mmHg 94%
    15:00 -2°C° 0 mm 3 mps 737 mmHg 94%
    16:00 -4°C° 0 mm 3 mps 737 mmHg 94%
    17:00 -4°C° 0 mm 3 mps 737 mmHg 94%
    18:00 -5°C° 0 mm 3 mps 737 mmHg 94%
    19:00 -6°C° 0 mm 3 mps 737 mmHg 94%
    20:00 -7°C° 0 mm 3 mps 737 mmHg 94%
    21:00 -6°C° 0 mm 3 mps 737 mmHg 95%
    22:00 -5°C° 0 mm 3 mps 737 mmHg 96%
    23:00 -4°C° 0 mm 3 mps 737 mmHg 97%

    Tomorrow, 29 January, Wednesday

    Time Temperature Precipitation Wind Pressure Humidity
    00:00 -2°C° 0 mm 3 mps 737 mmHg 97%
    01:00 -2°C° 0 mm 3 mps 737 mmHg 96%
    02:00 -1°C° 0 mm 3 mps 737 mmHg 96%
    03:00 -2°C° 0 mm 3 mps 736 mmHg 95%
    04:00 -4°C° 0 mm 3 mps 736 mmHg 94%
    05:00 -5°C° 0 mm 3 mps 735 mmHg 94%
    06:00 -5°C° 0 mm 3 mps 735 mmHg 94%
    07:00 -4°C° 0 mm 3 mps 735 mmHg 94%
    08:00 -4°C° 0 mm 4 mps 735 mmHg 95%
    09:00 -3°C° 0.1 mm 4 mps 735 mmHg 96%
    10:00 -3°C° 0.1 mm 4 mps 735 mmHg 98%
    11:00 -2°C° 0.1 mm 4 mps 734 mmHg 99%
    12:00 -1°C° 0.1 mm 3 mps 734 mmHg 99%
    13:00 0°C° 0.1 mm 3 mps 734 mmHg 99%
    14:00 0°C° 0.1 mm 3 mps 733 mmHg 99%
    15:00 0°C° 0.1 mm 3 mps 733 mmHg 99%
    16:00 -1°C° 0.1 mm 4 mps 732 mmHg 99%
    17:00 -1°C° 0.1 mm 4 mps 732 mmHg 99%
    18:00 -1°C° 0 mm 4 mps 732 mmHg 99%
    19:00 -1°C° 0 mm 4 mps 732 mmHg 99%
    20:00 -1°C° 0 mm 4 mps 731 mmHg 98%
    21:00 -1°C° 0.1 mm 4 mps 731 mmHg 98%
    22:00 -1°C° 0.1 mm 4 mps 730 mmHg 98%
    23:00 -1°C° 0.1 mm 4 mps 729 mmHg 98%

    Day after tomorrow, 30 January, Thursday

    Time Temperature Precipitation Wind Pressure Humidity
    00:00 -1°C° 0.1 mm 5 mps 729 mmHg 98%
    01:00 -1°C° 0.1 mm 5 mps 728 mmHg 99%
    02:00 -2°C° 0.1 mm 6 mps 728 mmHg 99%
    03:00 -2°C° 0.5 mm 6 mps 727 mmHg 98%
    04:00 -2°C° 0.5 mm 6 mps 727 mmHg 98%
    05:00 -2°C° 0.5 mm 6 mps 726 mmHg 98%
    06:00 -2°C° 0.1 mm 6 mps 727 mmHg 95%
    07:00 -3°C° 0.1 mm 6 mps 727 mmHg 93%
    08:00 -3°C° 0.1 mm 6 mps 727 mmHg 90%
    09:00 -3°C° 0 mm 6 mps 728 mmHg 89%
    10:00 -3°C° 0 mm 7 mps 728 mmHg 89%
    11:00 -3°C° 0 mm 7 mps 728 mmHg 88%
    12:00 -3°C° 0 mm 7 mps 728 mmHg 88%
    13:00 -3°C° 0 mm 7 mps 728 mmHg 88%
    14:00 -3°C° 0 mm 7 mps 728 mmHg 88%
    15:00 -3°C° 0.1 mm 7 mps 728 mmHg 90%
    16:00 -4°C° 0.1 mm 8 mps 727 mmHg 91%
    17:00 -4°C° 0.1 mm 8 mps 727 mmHg 93%
    18:00 -4°C° 0.4 mm 8 mps 727 mmHg 94%
    19:00 -4°C° 0.4 mm 9 mps 726 mmHg 95%
    20:00 -4°C° 0.4 mm 9 mps 726 mmHg 96%
    21:00 -4°C° 0.6 mm 9 mps 726 mmHg 96%
    22:00 -4°C° 0.6 mm 9 mps 726 mmHg 96%
    23:00 -4°C° 0.6 mm 8 mps 725 mmHg 96%

    31 January, Friday

    Time Temperature Precipitation Wind Pressure Humidity
    00:00 -4°C° 0.5 mm 8 mps 726 mmHg 96%
    01:00 -5°C° 0.5 mm 8 mps 726 mmHg 95%
    02:00 -5°C° 0.5 mm 8 mps 726 mmHg 95%
    03:00 -5°C° 0.3 mm 8 mps 726 mmHg 94%
    04:00 -4°C° 0.3 mm 7 mps 726 mmHg 94%
    05:00 -4°C° 0.3 mm 7 mps 726 mmHg 94%
    06:00 -4°C° 0.1 mm 7 mps 726 mmHg 93%
    07:00 -5°C° 0.1 mm 6 mps 727 mmHg 93%
    08:00 -5°C° 0.1 mm 6 mps 728 mmHg 92%
    09:00 -4°C° 0.1 mm 6 mps 728 mmHg 93%
    10:00 -4°C° 0.1 mm 5 mps 728 mmHg 95%
    11:00 -2°C° 0.1 mm 5 mps 729 mmHg 96%
    12:00 -2°C° 0.1 mm 5 mps 729 mmHg 95%
    13:00 -3°C° 0.1 mm 6 mps 730 mmHg 93%
    14:00 -3°C° 0.1 mm 6 mps 730 mmHg 92%
    15:00 -4°C° 0 mm 5 mps 730 mmHg 92%
    16:00 -3°C° 0 mm 4 mps 730 mmHg 92%
    17:00 -4°C° 0 mm 4 mps 730 mmHg 92%
    18:00 -4°C° 0 mm 3 mps 730 mmHg 94%
    19:00 -3°C° 0 mm 2 mps 731 mmHg 95%
    20:00 -3°C° 0 mm 2 mps 731 mmHg 96%
    21:00 -4°C° 0 mm 2 mps 731 mmHg 96%
    22:00 -2°C° 0 mm 1 mps 731 mmHg 97%
    23:00 -2°C° 0 mm 1 mps 731 mmHg 97%

    1 February, Saturday

    Time Temperature Precipitation Wind Pressure Humidity
    00:00 -3°C° 0 mm 1 mps 732 mmHg 97%
    01:00 -4°C° 0 mm 0 mps 732 mmHg 97%
    02:00 -5°C° 0 mm 0 mps 732 mmHg 97%
    03:00 -5°C° 0 mm 0 mps 732 mmHg 97%
    04:00 -5°C° 0 mm 0 mps 732 mmHg 96%
    05:00 -5°C° 0 mm 0 mps 733 mmHg 96%
    06:00 -5°C° 0 mm 0 mps 733 mmHg 96%
    07:00 -5°C° 0 mm 0 mps 733 mmHg 96%
    08:00 -5°C° 0 mm 0 mps 734 mmHg 95%
    09:00 -4°C° 0 mm 0 mps 734 mmHg 95%
    10:00 -3°C° 0 mm 0 mps 734 mmHg 94%
    11:00 -3°C° 0 mm 0 mps 734 mmHg 93%
    12:00 -2°C° 0 mm 0 mps 735 mmHg 94%
    13:00 -2°C° 0 mm 0 mps 735 mmHg 94%
    14:00 -1°C° 0 mm 1 mps 735 mmHg 95%
    15:00 -2°C° 0 mm 1 mps 735 mmHg 95%
    16:00 -3°C° 0 mm 1 mps 735 mmHg 95%
    17:00 -3°C° 0 mm 1 mps 735 mmHg 95%
    18:00 -5°C° 0 mm 2 mps 735 mmHg 96%
    19:00 -5°C° 0 mm 2 mps 736 mmHg 96%
    20:00 -5°C° 0 mm 2 mps 736 mmHg 96%
    21:00 -6°C° 0 mm 3 mps 736 mmHg 96%
    22:00 -5°C° 0 mm 3 mps 735 mmHg 96%
    23:00 -5°C° 0 mm 3 mps 735 mmHg 95%

    2 February, Sunday

    Time Temperature Precipitation Wind Pressure Humidity
    00:00 -5°C° 0 mm 3 mps 735 mmHg 95%
    01:00 -4°C° 0 mm 3 mps 735 mmHg 94%
    02:00 -4°C° 0 mm 3 mps 735 mmHg 94%
    03:00 -4°C° 0 mm 4 mps 735 mmHg 94%
    04:00 -4°C° 0 mm 4 mps 735 mmHg 94%
    05:00 -4°C° 0 mm 4 mps 735 mmHg 94%
    06:00 -4°C° 0 mm 4 mps 734 mmHg 94%
    07:00 -5°C° 0 mm 5 mps 734 mmHg 94%
    08:00 -5°C° 0 mm 5 mps 734 mmHg 94%
    09:00 -4°C° 0 mm 5 mps 734 mmHg 95%
    10:00 -4°C° 0 mm 5 mps 733 mmHg 95%
    11:00 -3°C° 0 mm 6 mps 733 mmHg 96%
    12:00 -3°C° 0.1 mm 6 mps 733 mmHg 96%
    13:00 -3°C° 0.1 mm 6 mps 732 mmHg 97%
    14:00 -2°C° 0.1 mm 6 mps 732 mmHg 97%
    15:00 -2°C° 0.3 mm 6 mps 731 mmHg 98%
    16:00 -2°C° 0.3 mm 6 mps 731 mmHg 98%
    17:00 -2°C° 0.3 mm 6 mps 730 mmHg 98%
    18:00 -2°C° 0.4 mm 6 mps 730 mmHg 98%
    19:00 -2°C° 0.4 mm 6 mps 729 mmHg 98%
    20:00 -2°C° 0.4 mm 6 mps 728 mmHg 98%
    21:00 -2°C° 0.4 mm 6 mps 728 mmHg 98%
    22:00 0°C° 0.4 mm 5 mps 727 mmHg 99%
    23:00 0°C° 0.4 mm 5 mps 727 mmHg 99%
    Show more